Regional Weather Roundup
Issued by NWS

Home | Current Version | Previous Version | Graphics & Text | Print | Product List | Glossary On
Versions: 1 2 3 4 5 6 7 8 9 10 11 12 13 14 15 16 17 18 19 20 21 22 23 24 25 26 27 28 29 30 31 32 33 34 35 36 37 38 39 40 41 42 43 44 45 46 47 48 49 50
000
ASUS43 KIND 300509
RWRIN

WEATHER ROUNDUP FOR INDIANA
NATIONAL WEATHER SERVICE INDIANAPOLIS IN
100 AM EDT THU OCT 30 2014

NOTE: "FAIR" INDICATES FEW OR NO CLOUDS BELOW 12,000 FEET WITH NO
SIGNIFICANT WEATHER AND/OR OBSTRUCTIONS TO VISIBILITY.

* - STATION DOES NOT REPORT WEATHER SUCH AS PRECIPITATION OR FOG.

+ - STATION NOT QUALITY CONTROLLED BY THE NATIONAL WEATHER SERVICE.
    USE DATA WITH CAUTION...ESPECIALLY DEWPOINT AND RELATIVE
    HUMIDITY OBSERVATIONS.

INZ001>003-010>013-019-020-300600-
NORTHWEST INDIANA

CITY           SKY/WX    TMP DP  RH WIND       PRES   REMARKS
GARY /AIRPORT/ CLEAR     42  34  72 SW3       30.14S
KNOX *+        CLOUDY    43  36  75 SW3       30.13S
LA PORTE +     CLOUDY    45  38  76 CALM      30.13F
MICHIGAN CITY+ CLOUDY    43  34  70 SW3       30.12F
MONTICELLO +   CLOUDY    41  36  82 CALM      30.14F
RENSSELAER +   PTCLDY    37  36  93 CALM      30.14F
VALPARAISO     CLOUDY    44  35  70 S3        30.13F

$$

LMZ046-743>745-300600-
SOUTHERN LAKE MICHIGAN

STATION/POSITION TIME  TEMP WIND        PRES
                       AIR  DIR/SP/G
                 (UTC) (F)  (DEG/KT/KT) (MB)
MICHIGAN CITY    0500   47  160/  3/  4   N/A

$$

INZ004-005-014>016-021>024-300600-
NORTH CENTRAL INDIANA

CITY           SKY/WX    TMP DP  RH WIND       PRES   REMARKS
GOSHEN         CLOUDY    43  38  82 W5        30.12S
LOGANSPORT +   CLOUDY    41  34  75 CALM      30.15S
PERU/GRISSOM   CLOUDY    43  39  86 W3        30.13F
ROCHESTER +    CLOUDY    45  36  70 W3        30.14S
SOUTH BEND     CLOUDY    44  37  76 S5        30.13S
WARSAW +       CLOUDY    41  36  81 CALM      30.13S

$$

INZ006>009-017-018-025>027-300600-
NORTHEAST INDIANA

CITY           SKY/WX    TMP DP  RH WIND       PRES   REMARKS
ANGOLA *+      CLOUDY    43  37  81 NW3       30.11S
AUBURN +       CLOUDY    43  36  75 CALM      30.12S
FORT WAYNE     CLOUDY    43  35  73 W5        30.13S
HUNTINGTON +   CLOUDY   N/A N/A N/A CALM      30.13S

$$

INZ028-029-035-036-043>045-051>053-300600-
WEST CENTRAL INDIANA

CITY           SKY/WX    TMP DP  RH WIND       PRES   REMARKS
GREENCASTLE +  CLOUDY    43  32  65 CALM      30.15F
LAFAYETTE      CLOUDY    41  38  89 CALM      30.15F
TERRE HAUTE    CLEAR     37  34  89 CALM      30.16S

$$

INZ030>032-037>040-046>048-054>057-064-065-300600-
CENTRAL INDIANA

CITY           SKY/WX    TMP DP  RH WIND       PRES   REMARKS
CP ATTERBURY + CLOUDY    45  34  65 CALM      30.16S
FRANKFORT +    CLOUDY    43  37  79 W5        30.16S
GREENWOOD *+   CLOUDY    43  30  61 CALM      30.15
INDIANAPOLIS   CLOUDY    42  32  67 NW5       30.14S
-EAGLE CREEK   CLOUDY    44  33  65 NW6       30.14S
KOKOMO *+      CLOUDY    43  34  70 W6        30.15S
MARION +       CLOUDY    42  34  74 NW3       30.14S
MT COMFORT *+  CLOUDY    43  28  56 NW5       30.14S
SHELBYVILLE    CLOUDY    44  35  70 NW3       30.14S
ZIONSVILLE +   CLOUDY    43  33  67 NW3       30.14F

$$

INZ033-034-041-042-049-050-058-059-300600-
EAST CENTRAL INDIANA

CITY           SKY/WX    TMP DP  RH WIND       PRES   REMARKS
MUNCIE         CLOUDY    43  35  73 NW3       30.13S

$$

INZ060-061-067>069-081>083-085>088-300600-
SOUTHWEST INDIANA

CITY           SKY/WX    TMP DP  RH WIND       PRES   REMARKS
EVANSVILLE     CLEAR     46  36  68 N5        30.17S
HUNTINGBURG *+ CLEAR     41  34  75 CALM      30.17S
WASHINGTON +   CLEAR     40  36  86 CALM      30.16S

$$

INZ062-063-066-070>080-084-089>092-300600-
SOUTH CENTRAL AND SOUTHEAST INDIANA

CITY           SKY/WX    TMP DP  RH WIND       PRES   REMARKS
BLOOMINGTON    PTCLDY    42  34  73 NE5       30.15S

$$




USA.gov is the U.S. government's official web portal to all federal, state and local government web resources and services.